Time,TemperatureF,DewpointF,PressureIn,WindDirection,WindDirectionDegrees,WindSpeedMPH,WindSpeedGustMPH,Humidity,HourlyPrecipIn,Conditions,Clouds,dailyrainin,SoftwareType,DateUTC
2013-11-13 00:01:00,26.1,16.7,30.21,ENE,58,0.0,0.0,67,0.00,,,0.00,WeatherCatV1.15B25,2013-11-13 05:01:00,
2013-11-13 00:02:00,26.1,16.7,30.21,ENE,58,0.0,0.0,67,0.00,,,0.00,WeatherCatV1.15B25,2013-11-13 05:02:00,
2013-11-13 00:07:00,25.9,16.5,30.21,ESE,117,0.0,0.0,67,0.00,,,0.00,WeatherCatV1.15B25,2013-11-13 05:07:00,
2013-11-13 00:12:00,25.9,16.5,30.21,East,83,0.0,0.0,67,0.00,,,0.00,WeatherCatV1.15B25,2013-11-13 05:12:00,
2013-11-13 00:17:00,25.9,16.5,30.21,East,84,0.0,0.0,67,0.00,,,0.00,WeatherCatV1.15B25,2013-11-13 05:17:00,
2013-11-13 00:22:00,25.7,16.6,30.21,East,84,0.0,0.0,68,0.00,,,0.00,WeatherCatV1.15B25,2013-11-13 05:22:00,
2013-11-13 00:27:00,25.7,16.6,30.21,East,82,0.0,0.0,68,0.00,,,0.00,WeatherCatV1.15B25,2013-11-13 05:27:00,
2013-11-13 00:32:00,25.6,16.5,30.21,East,82,0.0,0.0,68,0.00,,,0.00,WeatherCatV1.15B25,2013-11-13 05:32:00,
2013-11-13 00:37:00,25.5,16.8,30.21,East,84,0.0,1.0,69,0.00,,,0.00,WeatherCatV1.15B25,2013-11-13 05:37:00,
2013-11-13 00:42:00,25.4,16.7,30.21,East,83,0.0,0.0,69,0.00,,,0.00,WeatherCatV1.15B25,2013-11-13 05:42:00,
2013-11-13 00:47:00,25.3,16.6,30.21,East,82,0.0,0.0,69,0.00,,,0.00,WeatherCatV1.15B25,2013-11-13 05:47:00,
2013-11-13 00:52:00,25.1,16.4,30.21,East,82,0.0,0.0,69,0.00,,,0.00,WeatherCatV1.15B25,2013-11-13 05:52:00,
2013-11-13 00:57:00,25.0,16.6,30.21,East,82,0.0,0.0,70,0.00,,,0.00,WeatherCatV1.15B25,2013-11-13 05:57:00,
2013-11-13 01:02:00,24.7,16.3,30.21,East,82,0.0,0.0,70,0.00,,,0.00,WeatherCatV1.15B25,2013-11-13 06:02:00,
2013-11-13 01:07:00,24.7,16.7,30.22,East,83,0.0,1.0,71,0.00,,,0.00,WeatherCatV1.15B25,2013-11-13 06:07:00,
2013-11-13 01:12:00,24.6,16.6,30.22,East,84,0.0,0.0,71,0.00,,,0.00,WeatherCatV1.15B25,2013-11-13 06:12:00,
2013-11-13 01:17:00,24.7,16.7,30.22,East,84,0.0,1.0,71,0.00,,,0.00,WeatherCatV1.15B25,2013-11-13 06:17:00,
2013-11-13 01:22:00,24.7,16.7,30.22,East,84,0.0,0.0,71,0.00,,,0.00,WeatherCatV1.15B25,2013-11-13 06:22:00,
2013-11-13 01:27:00,24.6,16.9,30.22,SE,131,0.0,0.0,72,0.00,,,0.00,WeatherCatV1.15B25,2013-11-13 06:27:00,
2013-11-13 01:32:00,24.5,16.8,30.22,SE,131,0.0,0.0,72,0.00,,,0.00,WeatherCatV1.15B25,2013-11-13 06:32:00,
2013-11-13 01:37:00,24.5,16.8,30.22,East,86,0.0,1.0,72,0.00,,,0.00,WeatherCatV1.15B25,2013-11-13 06:37:00,
2013-11-13 01:42:00,24.4,16.7,30.22,East,86,0.0,0.0,72,0.00,,,0.00,WeatherCatV1.15B25,2013-11-13 06:42:00,
2013-11-13 01:47:00,24.2,16.8,30.22,East,86,0.0,0.0,73,0.00,,,0.00,WeatherCatV1.15B25,2013-11-13 06:47:00,
2013-11-13 01:52:00,24.0,16.6,30.22,East,86,0.0,0.0,73,0.00,,,0.00,WeatherCatV1.15B25,2013-11-13 06:52:00,
2013-11-13 01:57:00,23.8,16.7,30.23,East,88,1.0,1.0,74,0.00,,,0.00,WeatherCatV1.15B25,2013-11-13 06:57:00,
2013-11-13 02:02:00,23.8,16.7,30.23,East,89,0.0,0.0,74,0.00,,,0.00,WeatherCatV1.15B25,2013-11-13 07:02:00,
2013-11-13 02:07:00,23.6,16.6,30.22,East,89,0.0,0.0,74,0.00,,,0.00,WeatherCatV1.15B25,2013-11-13 07:07:00,
2013-11-13 02:12:00,23.4,16.7,30.23,East,89,0.0,0.0,75,0.00,,,0.00,WeatherCatV1.15B25,2013-11-13 07:12:00,
2013-11-13 02:17:00,23.3,16.6,30.23,ENE,76,0.0,0.0,75,0.00,,,0.00,WeatherCatV1.15B25,2013-11-13 07:17:00,
2013-11-13 02:22:00,23.2,16.8,30.23,ENE,77,0.0,0.0,76,0.00,,,0.00,WeatherCatV1.15B25,2013-11-13 07:22:00,
2013-11-13 02:27:00,23.0,16.6,30.23,ESE,117,1.0,1.0,76,0.00,,,0.00,WeatherCatV1.15B25,2013-11-13 07:27:00,
2013-11-13 02:32:00,23.1,16.7,30.22,ESE,117,0.0,0.0,76,0.00,,,0.00,WeatherCatV1.15B25,2013-11-13 07:32:00,
2013-11-13 02:37:00,23.2,16.8,30.22,ESE,117,0.0,0.0,76,0.00,,,0.00,WeatherCatV1.15B25,2013-11-13 07:37:00,
2013-11-13 02:42:00,23.2,16.8,30.22,SSE,154,0.0,0.0,76,0.00,,,0.00,WeatherCatV1.15B25,2013-11-13 07:42:00,
2013-11-13 02:47:00,23.2,16.8,30.22,SSE,153,0.0,0.0,76,0.00,,,0.00,WeatherCatV1.15B25,2013-11-13 07:47:00,
2013-11-13 02:52:00,23.3,16.6,30.22,SSE,153,0.0,0.0,75,0.00,,,0.00,WeatherCatV1.15B25,2013-11-13 07:52:00,
2013-11-13 02:57:00,23.4,16.7,30.22,SSE,153,0.0,0.0,75,0.00,,,0.00,WeatherCatV1.15B25,2013-11-13 07:57:00,
2013-11-13 03:02:00,23.5,16.5,30.22,SSE,154,0.0,0.0,74,0.00,,,0.00,WeatherCatV1.15B25,2013-11-13 08:02:00,
2013-11-13 03:07:00,23.7,16.6,30.22,SSE,153,0.0,0.0,74,0.00,,,0.00,WeatherCatV1.15B25,2013-11-13 08:07:00,
2013-11-13 03:12:00,23.7,16.6,30.22,SSE,153,0.0,0.0,74,0.00,,,0.00,WeatherCatV1.15B25,2013-11-13 08:12:00,
2013-11-13 03:17:00,23.6,16.6,30.22,SSE,150,0.0,0.0,74,0.00,,,0.00,WeatherCatV1.15B25,2013-11-13 08:17:00,
2013-11-13 03:22:00,23.4,16.4,30.22,SSE,150,0.0,0.0,74,0.00,,,0.00,WeatherCatV1.15B25,2013-11-13 08:22:00,
2013-11-13 03:27:00,23.3,16.6,30.23,SSE,150,0.0,0.0,75,0.00,,,0.00,WeatherCatV1.15B25,2013-11-13 08:27:00,
2013-11-13 03:32:00,23.2,16.5,30.23,SSE,150,0.0,0.0,75,0.00,,,0.00,WeatherCatV1.15B25,2013-11-13 08:32:00,
2013-11-13 03:37:00,23.2,16.5,30.23,ENE,68,0.0,0.0,75,0.00,,,0.00,WeatherCatV1.15B25,2013-11-13 08:37:00,
2013-11-13 03:42:00,23.4,16.7,30.23,NE,51,0.0,0.0,75,0.00,,,0.00,WeatherCatV1.15B25,2013-11-13 08:42:00,
2013-11-13 03:47:00,23.4,16.7,30.23,NE,51,0.0,0.0,75,0.00,,,0.00,WeatherCatV1.15B25,2013-11-13 08:47:00,
2013-11-13 03:52:00,23.3,16.6,30.23,NE,51,0.0,0.0,75,0.00,,,0.00,WeatherCatV1.15B25,2013-11-13 08:52:00,
2013-11-13 03:57:00,23.2,16.5,30.23,NE,51,0.0,0.0,75,0.00,,,0.00,WeatherCatV1.15B25,2013-11-13 08:57:00,
2013-11-13 04:02:00,23.1,16.4,30.23,NE,51,0.0,0.0,75,0.00,,,0.00,WeatherCatV1.15B25,2013-11-13 09:02:00,
2013-11-13 04:07:00,23.2,16.5,30.23,ESE,115,0.0,1.0,75,0.00,,,0.00,WeatherCatV1.15B25,2013-11-13 09:07:00,
2013-11-13 04:12:00,23.4,16.7,30.24,East,92,0.0,2.0,75,0.00,,,0.00,WeatherCatV1.15B25,2013-11-13 09:12:00,
2013-11-13 04:17:00,23.4,16.7,30.24,East,89,0.0,0.0,75,0.00,,,0.00,WeatherCatV1.15B25,2013-11-13 09:17:00,
2013-11-13 04:22:00,23.3,16.6,30.24,East,89,0.0,0.0,75,0.00,,,0.00,WeatherCatV1.15B25,2013-11-13 09:22:00,
2013-11-13 04:27:00,23.3,16.6,30.24,East,89,0.0,0.0,75,0.00,,,0.00,WeatherCatV1.15B25,2013-11-13 09:27:00,
2013-11-13 04:32:00,23.1,16.4,30.24,ENE,69,0.0,0.0,75,0.00,,,0.00,WeatherCatV1.15B25,2013-11-13 09:32:00,
2013-11-13 04:37:00,23.1,16.4,30.24,NNW,346,0.0,0.0,75,0.00,,,0.00,WeatherCatV1.15B25,2013-11-13 09:37:00,
2013-11-13 04:42:00,23.1,16.7,30.24,NNW,347,0.0,1.0,76,0.00,,,0.00,WeatherCatV1.15B25,2013-11-13 09:42:00,
2013-11-13 04:47:00,23.1,16.4,30.24,North,350,1.0,1.0,75,0.00,,,0.00,WeatherCatV1.15B25,2013-11-13 09:47:00,
2013-11-13 04:52:00,23.2,16.5,30.24,East,98,0.0,1.0,75,0.00,,,0.00,WeatherCatV1.15B25,2013-11-13 09:52:00,
2013-11-13 04:57:00,23.2,16.5,30.24,ENE,72,0.0,1.0,75,0.00,,,0.00,WeatherCatV1.15B25,2013-11-13 09:57:00,
2013-11-13 05:02:00,23.2,16.5,30.24,ENE,72,0.0,0.0,75,0.00,,,0.00,WeatherCatV1.15B25,2013-11-13 10:02:00,
2013-11-13 05:07:00,23.2,16.5,30.24,South,188,0.0,1.0,75,0.00,,,0.00,WeatherCatV1.15B25,2013-11-13 10:07:00,
2013-11-13 05:12:00,23.3,16.3,30.24,East,84,0.0,2.0,74,0.00,,,0.00,WeatherCatV1.15B25,2013-11-13 10:12:00,
2013-11-13 05:17:00,23.5,16.5,30.24,NW,308,0.0,0.0,74,0.00,,,0.00,WeatherCatV1.15B25,2013-11-13 10:17:00,
2013-11-13 05:22:00,23.6,16.6,30.24,North,349,0.0,1.0,74,0.00,,,0.00,WeatherCatV1.15B25,2013-11-13 10:22:00,
2013-11-13 05:27:00,23.7,16.6,30.25,WSW,249,0.0,0.0,74,0.00,,,0.00,WeatherCatV1.15B25,2013-11-13 10:27:00,
2013-11-13 05:32:00,23.6,16.2,30.25,North,356,2.0,4.0,73,0.00,,,0.00,WeatherCatV1.15B25,2013-11-13 10:32:00,
2013-11-13 05:37:00,23.5,16.1,30.25,North,11,0.0,3.0,73,0.00,,,0.00,WeatherCatV1.15B25,2013-11-13 10:37:00,
2013-11-13 05:42:00,23.6,16.2,30.25,NNE,25,1.0,3.0,73,0.00,,,0.00,WeatherCatV1.15B25,2013-11-13 10:42:00,
2013-11-13 05:47:00,23.6,16.2,30.25,SW,224,1.0,2.0,73,0.00,,,0.00,WeatherCatV1.15B25,2013-11-13 10:47:00,
2013-11-13 05:52:00,23.6,16.2,30.25,North,11,0.0,1.0,73,0.00,,,0.00,WeatherCatV1.15B25,2013-11-13 10:52:00,
2013-11-13 05:57:00,23.5,16.1,30.26,East,94,0.0,2.0,73,0.00,,,0.00,WeatherCatV1.15B25,2013-11-13 10:57:00,
2013-11-13 06:02:00,23.4,16.0,30.26,SW,233,0.0,1.0,73,0.00,,,0.00,WeatherCatV1.15B25,2013-11-13 11:02:00,
2013-11-13 06:07:00,23.3,15.9,30.26,East,84,0.0,2.0,73,0.00,,,0.00,WeatherCatV1.15B25,2013-11-13 11:07:00,
2013-11-13 06:12:00,23.3,15.9,30.26,SSW,197,0.0,1.0,73,0.00,,,0.00,WeatherCatV1.15B25,2013-11-13 11:12:00,
2013-11-13 06:17:00,23.4,16.0,30.26,SE,145,0.0,3.0,73,0.00,,,0.00,WeatherCatV1.15B25,2013-11-13 11:17:00,
2013-11-13 06:22:00,23.4,15.7,30.27,SE,135,0.0,0.0,72,0.00,,,0.00,WeatherCatV1.15B25,2013-11-13 11:22:00,
2013-11-13 06:27:00,23.3,15.6,30.27,WSW,242,1.0,2.0,72,0.00,,,0.00,WeatherCatV1.15B25,2013-11-13 11:27:00,
2013-11-13 06:32:00,23.3,15.9,30.27,ENE,75,0.0,1.0,73,0.00,,,0.00,WeatherCatV1.15B25,2013-11-13 11:32:00,
2013-11-13 06:37:00,23.2,15.9,30.27,SSE,165,0.0,1.0,73,0.00,,,0.00,WeatherCatV1.15B25,2013-11-13 11:37:00,
2013-11-13 06:42:00,23.1,16.1,30.27,SE,139,0.0,0.0,74,0.00,,,0.00,WeatherCatV1.15B25,2013-11-13 11:42:00,
2013-11-13 06:47:00,23.1,16.1,30.27,ESE,119,0.0,1.0,74,0.00,,,0.00,WeatherCatV1.15B25,2013-11-13 11:47:00,
2013-11-13 06:52:00,23.0,16.0,30.28,NNE,32,1.0,1.0,74,0.00,,,0.00,WeatherCatV1.15B25,2013-11-13 11:52:00,
2013-11-13 06:57:00,23.0,16.3,30.28,ENE,57,0.0,1.0,75,0.00,,,0.00,WeatherCatV1.15B25,2013-11-13 11:57:00,
2013-11-13 07:02:00,23.1,16.4,30.28,SSE,162,0.0,0.0,75,0.00,,,0.00,WeatherCatV1.15B25,2013-11-13 12:02:00,
2013-11-13 07:07:00,23.3,16.3,30.29,SSW,204,0.0,1.0,74,0.00,,,0.00,WeatherCatV1.15B25,2013-11-13 12:07:00,
2013-11-13 07:12:00,23.5,16.5,30.29,East,79,0.0,0.0,74,0.00,,,0.00,WeatherCatV1.15B25,2013-11-13 12:12:00,
2013-11-13 07:17:00,23.7,16.6,30.29,SSW,212,0.0,1.0,74,0.00,,,0.00,WeatherCatV1.15B25,2013-11-13 12:17:00,
2013-11-13 07:22:00,23.9,16.5,30.29,SW,225,1.0,1.0,73,0.00,,,0.00,WeatherCatV1.15B25,2013-11-13 12:22:00,
2013-11-13 07:27:00,24.2,16.8,30.29,SE,127,0.0,2.0,73,0.00,,,0.00,WeatherCatV1.15B25,2013-11-13 12:27:00,
2013-11-13 07:32:00,24.4,16.7,30.29,ESE,123,1.0,7.0,72,0.00,,,0.00,WeatherCatV1.15B25,2013-11-13 12:32:00,
2013-11-13 07:37:00,24.7,16.7,30.30,ESE,116,0.0,1.0,71,0.00,,,0.00,WeatherCatV1.15B25,2013-11-13 12:37:00,
2013-11-13 07:42:00,24.8,16.8,30.30,SSE,148,0.0,2.0,71,0.00,,,0.00,WeatherCatV1.15B25,2013-11-13 12:42:00,
2013-11-13 07:47:00,25.1,16.7,30.30,South,172,0.0,1.0,70,0.00,,,0.00,WeatherCatV1.15B25,2013-11-13 12:47:00,
2013-11-13 07:52:00,25.4,16.7,30.30,NNW,331,1.0,2.0,69,0.00,,,0.00,WeatherCatV1.15B25,2013-11-13 12:52:00,
2013-11-13 07:57:00,25.7,17.0,30.30,ESE,108,3.0,5.0,69,0.00,,,0.00,WeatherCatV1.15B25,2013-11-13 12:57:00,
2013-11-13 08:02:00,25.9,16.5,30.31,West,271,0.0,1.0,67,0.00,,,0.00,WeatherCatV1.15B25,2013-11-13 13:02:00,
2013-11-13 08:07:00,26.2,16.8,30.31,East,82,4.0,5.0,67,0.00,,,0.00,WeatherCatV1.15B25,2013-11-13 13:07:00,
2013-11-13 08:12:00,26.4,16.6,30.31,South,191,0.0,3.0,66,0.00,,,0.00,WeatherCatV1.15B25,2013-11-13 13:12:00,
2013-11-13 08:17:00,26.7,16.5,30.31,SW,215,3.0,5.0,65,0.00,,,0.00,WeatherCatV1.15B25,2013-11-13 13:17:00,
2013-11-13 08:22:00,26.9,16.0,30.30,ESE,103,1.0,7.0,63,0.00,,,0.00,WeatherCatV1.15B25,2013-11-13 13:22:00,
2013-11-13 08:27:00,27.2,16.3,30.31,NNE,15,1.0,5.0,63,0.00,,,0.00,WeatherCatV1.15B25,2013-11-13 13:27:00,
2013-11-13 08:32:00,27.4,16.1,30.30,NNW,346,0.0,7.0,62,0.00,,,0.00,WeatherCatV1.15B25,2013-11-13 13:32:00,
2013-11-13 08:37:00,27.5,16.2,30.31,SSW,211,1.0,3.0,62,0.00,,,0.00,WeatherCatV1.15B25,2013-11-13 13:37:00,
2013-11-13 08:42:00,27.9,16.6,30.30,SSE,153,1.0,3.0,62,0.00,,,0.00,WeatherCatV1.15B25,2013-11-13 13:42:00,
2013-11-13 08:47:00,28.1,16.4,30.30,South,180,0.0,6.0,61,0.00,,,0.00,WeatherCatV1.15B25,2013-11-13 13:47:00,
2013-11-13 08:52:00,28.4,16.3,30.30,NNW,335,0.0,3.0,60,0.00,,,0.00,WeatherCatV1.15B25,2013-11-13 13:52:00,
2013-11-13 08:57:00,28.6,16.1,30.30,SE,141,1.0,6.0,59,0.00,,,0.00,WeatherCatV1.15B25,2013-11-13 13:57:00,
2013-11-13 09:02:00,28.8,16.3,30.30,WSW,250,0.0,2.0,59,0.00,,,0.00,WeatherCatV1.15B25,2013-11-13 14:02:00,
2013-11-13 09:07:00,29.1,16.6,30.30,NNW,335,1.0,6.0,59,0.00,,,0.00,WeatherCatV1.15B25,2013-11-13 14:07:00,
2013-11-13 09:12:00,29.3,16.4,30.30,SW,226,1.0,2.0,58,0.00,,,0.00,WeatherCatV1.15B25,2013-11-13 14:12:00,
2013-11-13 09:17:00,29.6,16.7,30.30,SSW,211,0.0,3.0,58,0.00,,,0.00,WeatherCatV1.15B25,2013-11-13 14:17:00,
2013-11-13 09:22:00,30.1,16.7,30.30,NNW,334,4.0,5.0,57,0.00,,,0.00,WeatherCatV1.15B25,2013-11-13 14:22:00,
2013-11-13 09:27:00,30.3,16.5,30.30,East,80,1.0,3.0,56,0.00,,,0.00,WeatherCatV1.15B25,2013-11-13 14:27:00,
2013-11-13 09:32:00,30.6,16.8,30.30,South,178,1.0,3.0,56,0.00,,,0.00,WeatherCatV1.15B25,2013-11-13 14:32:00,
2013-11-13 09:37:00,30.9,16.7,30.30,SSE,166,2.0,5.0,55,0.00,,,0.00,WeatherCatV1.15B25,2013-11-13 14:37:00,
2013-11-13 09:42:00,31.1,16.8,30.30,SE,125,0.0,1.0,55,0.00,,,0.00,WeatherCatV1.15B25,2013-11-13 14:42:00,
2013-11-13 09:47:00,31.8,17.1,30.30,SSE,149,0.0,1.0,54,0.00,,,0.00,WeatherCatV1.15B25,2013-11-13 14:47:00,
2013-11-13 09:52:00,31.9,15.9,30.30,NNE,27,2.0,5.0,51,0.00,,,0.00,WeatherCatV1.15B25,2013-11-13 14:52:00,
2013-11-13 09:57:00,32.0,16.8,30.30,SE,139,1.0,5.0,53,0.00,,,0.00,WeatherCatV1.15B25,2013-11-13 14:57:00,
2013-11-13 10:02:00,32.2,16.6,30.31,SSW,199,4.0,4.0,52,0.00,,,0.00,WeatherCatV1.15B25,2013-11-13 15:02:00,
2013-11-13 10:07:00,32.5,16.9,30.30,SW,224,1.0,3.0,52,0.00,,,0.00,WeatherCatV1.15B25,2013-11-13 15:07:00,
2013-11-13 10:12:00,32.7,16.6,30.30,WSW,242,3.0,4.0,51,0.00,,,0.00,WeatherCatV1.15B25,2013-11-13 15:12:00,
2013-11-13 10:17:00,32.8,16.2,30.30,East,100,0.0,2.0,50,0.00,,,0.00,WeatherCatV1.15B25,2013-11-13 15:17:00,
2013-11-13 10:22:00,32.8,16.2,30.30,SSE,163,1.0,2.0,50,0.00,,,0.00,WeatherCatV1.15B25,2013-11-13 15:22:00,
2013-11-13 10:27:00,33.0,16.4,30.30,ESE,112,1.0,3.0,50,0.00,,,0.00,WeatherCatV1.15B25,2013-11-13 15:27:00,
2013-11-13 10:32:00,33.3,17.1,30.29,ESE,113,0.0,2.0,51,0.00,,,0.00,WeatherCatV1.15B25,2013-11-13 15:32:00,
2013-11-13 10:37:00,33.4,17.2,30.29,NE,34,3.0,4.0,51,0.00,,,0.00,WeatherCatV1.15B25,2013-11-13 15:37:00,
2013-11-13 10:42:00,33.3,17.1,30.29,SE,145,0.0,2.0,51,0.00,,,0.00,WeatherCatV1.15B25,2013-11-13 15:42:00,
2013-11-13 10:47:00,33.7,17.1,30.28,SSW,207,0.0,3.0,50,0.00,,,0.00,WeatherCatV1.15B25,2013-11-13 15:47:00,
2013-11-13 10:52:00,33.8,17.2,30.29,ENE,66,0.0,4.0,50,0.00,,,0.00,WeatherCatV1.15B25,2013-11-13 15:52:00,
2013-11-13 10:57:00,34.0,16.9,30.28,ENE,67,2.0,2.0,49,0.00,,,0.00,WeatherCatV1.15B25,2013-11-13 15:57:00,
2013-11-13 11:02:00,33.7,16.1,30.28,ESE,117,1.0,5.0,48,0.00,,,0.00,WeatherCatV1.15B25,2013-11-13 16:02:00,
2013-11-13 11:07:00,33.5,16.4,30.28,SSW,201,1.0,4.0,49,0.00,,,0.00,WeatherCatV1.15B25,2013-11-13 16:07:00,
2013-11-13 11:12:00,33.5,16.9,30.27,NE,55,4.0,5.0,50,0.00,,,0.00,WeatherCatV1.15B25,2013-11-13 16:12:00,
2013-11-13 11:17:00,33.6,17.0,30.27,SSW,208,0.0,4.0,50,0.00,,,0.00,WeatherCatV1.15B25,2013-11-13 16:17:00,
2013-11-13 11:22:00,33.9,17.2,30.27,SSW,203,5.0,6.0,50,0.00,,,0.00,WeatherCatV1.15B25,2013-11-13 16:22:00,
2013-11-13 11:27:00,33.9,17.2,30.27,SSW,195,1.0,3.0,50,0.00,,,0.00,WeatherCatV1.15B25,2013-11-13 16:27:00,
2013-11-13 11:32:00,34.0,16.9,30.27,South,191,3.0,5.0,49,0.00,,,0.00,WeatherCatV1.15B25,2013-11-13 16:32:00,
2013-11-13 11:37:00,34.1,16.5,30.27,ENE,58,2.0,2.0,48,0.00,,,0.00,WeatherCatV1.15B25,2013-11-13 16:37:00,
2013-11-13 11:42:00,34.3,17.1,30.26,ESE,110,1.0,2.0,49,0.00,,,0.00,WeatherCatV1.15B25,2013-11-13 16:42:00,
2013-11-13 11:47:00,34.6,16.9,30.26,SE,138,1.0,2.0,48,0.00,,,0.00,WeatherCatV1.15B25,2013-11-13 16:47:00,
2013-11-13 11:52:00,34.5,16.4,30.26,SSW,198,1.0,2.0,47,0.00,,,0.00,WeatherCatV1.15B25,2013-11-13 16:52:00,
2013-11-13 11:57:00,34.6,16.5,30.26,SW,214,1.0,1.0,47,0.00,,,0.00,WeatherCatV1.15B25,2013-11-13 16:57:00,
2013-11-13 12:02:00,34.4,16.3,30.26,NNW,341,1.0,3.0,47,0.00,,,0.00,WeatherCatV1.15B25,2013-11-13 17:02:00,
2013-11-13 12:07:00,34.5,16.4,30.26,ENE,77,1.0,3.0,47,0.00,,,0.00,WeatherCatV1.15B25,2013-11-13 17:07:00,
2013-11-13 12:12:00,34.7,17.0,30.26,SSW,212,1.0,4.0,48,0.00,,,0.00,WeatherCatV1.15B25,2013-11-13 17:12:00,
2013-11-13 12:17:00,34.9,16.2,30.25,SSW,209,1.0,3.0,46,0.00,,,0.00,WeatherCatV1.15B25,2013-11-13 17:17:00,
2013-11-13 12:22:00,34.9,16.7,30.25,SSW,195,1.0,2.0,47,0.00,,,0.00,WeatherCatV1.15B25,2013-11-13 17:22:00,
2013-11-13 12:27:00,35.2,17.0,30.25,ENE,75,0.0,1.0,47,0.00,,,0.00,WeatherCatV1.15B25,2013-11-13 17:27:00,
2013-11-13 12:32:00,35.6,16.9,30.25,NE,51,3.0,4.0,46,0.00,,,0.00,WeatherCatV1.15B25,2013-11-13 17:32:00,
2013-11-13 12:37:00,35.7,17.0,30.25,SE,125,1.0,4.0,46,0.00,,,0.00,WeatherCatV1.15B25,2013-11-13 17:37:00,
2013-11-13 12:42:00,35.7,17.0,30.25,SSW,211,3.0,3.0,46,0.00,,,0.00,WeatherCatV1.15B25,2013-11-13 17:42:00,
2013-11-13 12:47:00,35.7,16.5,30.25,ESE,112,0.0,1.0,45,0.00,,,0.00,WeatherCatV1.15B25,2013-11-13 17:47:00,
2013-11-13 12:52:00,36.0,16.7,30.25,SE,139,0.0,3.0,45,0.00,,,0.00,WeatherCatV1.15B25,2013-11-13 17:52:00,
2013-11-13 12:57:00,36.3,16.0,30.25,ENE,63,3.0,3.0,43,0.00,,,0.00,WeatherCatV1.15B25,2013-11-13 17:57:00,
2013-11-13 13:02:00,36.1,16.3,30.25,ESE,106,2.0,4.0,44,0.00,,,0.00,WeatherCatV1.15B25,2013-11-13 18:02:00,
2013-11-13 13:07:00,36.0,16.7,30.24,ENE,77,1.0,3.0,45,0.00,,,0.00,WeatherCatV1.15B25,2013-11-13 18:07:00,
2013-11-13 13:12:00,36.3,17.0,30.24,NE,52,0.0,3.0,45,0.00,,,0.00,WeatherCatV1.15B25,2013-11-13 18:12:00,
2013-11-13 13:17:00,36.9,17.0,30.24,SE,125,2.0,3.0,44,0.00,,,0.00,WeatherCatV1.15B25,2013-11-13 18:17:00,
2013-11-13 13:22:00,37.2,16.8,30.24,SSW,208,2.0,2.0,43,0.00,,,0.00,WeatherCatV1.15B25,2013-11-13 18:22:00,
2013-11-13 13:27:00,37.4,17.5,30.23,SSW,207,1.0,9.0,44,0.00,,,0.00,WeatherCatV1.15B25,2013-11-13 18:27:00,
2013-11-13 13:32:00,37.6,16.6,30.23,SW,222,1.0,4.0,42,0.00,,,0.00,WeatherCatV1.15B25,2013-11-13 18:32:00,
2013-11-13 13:37:00,37.9,16.9,30.23,NNW,333,0.0,2.0,42,0.00,,,0.00,WeatherCatV1.15B25,2013-11-13 18:37:00,
2013-11-13 13:42:00,38.0,16.4,30.23,South,188,2.0,4.0,41,0.00,,,0.00,WeatherCatV1.15B25,2013-11-13 18:42:00,
2013-11-13 13:47:00,37.9,16.3,30.23,SSW,211,0.0,7.0,41,0.00,,,0.00,WeatherCatV1.15B25,2013-11-13 18:47:00,
2013-11-13 13:52:00,38.1,15.9,30.23,SE,139,4.0,4.0,40,0.00,,,0.00,WeatherCatV1.15B25,2013-11-13 18:52:00,
2013-11-13 13:57:00,38.1,16.5,30.23,SW,226,3.0,5.0,41,0.00,,,0.00,WeatherCatV1.15B25,2013-11-13 18:57:00,
2013-11-13 14:02:00,38.4,16.2,30.23,SSE,167,1.0,6.0,40,0.00,,,0.00,WeatherCatV1.15B25,2013-11-13 19:02:00,
2013-11-13 14:07:00,38.4,16.8,30.23,SW,236,0.0,1.0,41,0.00,,,0.00,WeatherCatV1.15B25,2013-11-13 19:07:00,
2013-11-13 14:12:00,38.6,15.8,30.23,North,356,3.0,3.0,39,0.00,,,0.00,WeatherCatV1.15B25,2013-11-13 19:12:00,
2013-11-13 14:17:00,38.1,15.4,30.23,East,100,0.0,4.0,39,0.00,,,0.00,WeatherCatV1.15B25,2013-11-13 19:17:00,
2013-11-13 14:22:00,38.0,15.9,30.23,SW,214,1.0,4.0,40,0.00,,,0.00,WeatherCatV1.15B25,2013-11-13 19:22:00,
2013-11-13 14:27:00,38.3,15.5,30.23,SW,223,0.0,4.0,39,0.00,,,0.00,WeatherCatV1.15B25,2013-11-13 19:27:00,
2013-11-13 14:32:00,37.9,15.8,30.23,ESE,113,1.0,6.0,40,0.00,,,0.00,WeatherCatV1.15B25,2013-11-13 19:32:00,
2013-11-13 14:37:00,37.8,15.1,30.23,South,187,1.0,4.0,39,0.00,,,0.00,WeatherCatV1.15B25,2013-11-13 19:37:00,
2013-11-13 14:42:00,37.5,14.8,30.23,ENE,57,1.0,4.0,39,0.00,,,0.00,WeatherCatV1.15B25,2013-11-13 19:42:00,
2013-11-13 14:47:00,37.2,15.1,30.23,NNE,32,3.0,3.0,40,0.00,,,0.00,WeatherCatV1.15B25,2013-11-13 19:47:00,
2013-11-13 14:52:00,36.8,14.8,30.23,SE,141,1.0,5.0,40,0.00,,,0.00,WeatherCatV1.15B25,2013-11-13 19:52:00,
2013-11-13 14:57:00,36.5,14.5,30.23,NE,39,0.0,2.0,40,0.00,,,0.00,WeatherCatV1.15B25,2013-11-13 19:57:00,
2013-11-13 15:02:00,36.1,14.1,30.23,NNE,25,1.0,3.0,40,0.00,,,0.00,WeatherCatV1.15B25,2013-11-13 20:02:00,
2013-11-13 15:07:00,35.8,13.9,30.23,SSW,201,2.0,4.0,40,0.00,,,0.00,WeatherCatV1.15B25,2013-11-13 20:07:00,
2013-11-13 15:12:00,35.7,14.3,30.23,NE,36,0.0,1.0,41,0.00,,,0.00,WeatherCatV1.15B25,2013-11-13 20:12:00,
2013-11-13 15:17:00,35.5,14.2,30.24,NW,319,2.0,3.0,41,0.00,,,0.00,WeatherCatV1.15B25,2013-11-13 20:17:00,
2013-11-13 15:22:00,35.3,14.0,30.23,SSE,166,0.0,1.0,41,0.00,,,0.00,WeatherCatV1.15B25,2013-11-13 20:22:00,
2013-11-13 15:27:00,35.2,14.4,30.23,SSW,212,1.0,8.0,42,0.00,,,0.00,WeatherCatV1.15B25,2013-11-13 20:27:00,
2013-11-13 15:32:00,35.1,13.8,30.24,ENE,75,1.0,1.0,41,0.00,,,0.00,WeatherCatV1.15B25,2013-11-13 20:32:00,
2013-11-13 15:37:00,34.8,12.4,30.24,ENE,68,0.0,2.0,39,0.00,,,0.00,WeatherCatV1.15B25,2013-11-13 20:37:00,
2013-11-13 15:42:00,34.7,12.9,30.24,WNW,290,2.0,3.0,40,0.00,,,0.00,WeatherCatV1.15B25,2013-11-13 20:42:00,
2013-11-13 15:47:00,34.5,12.1,30.24,ENE,61,1.0,1.0,39,0.00,,,0.00,WeatherCatV1.15B25,2013-11-13 20:47:00,
2013-11-13 15:52:00,34.3,12.5,30.24,SW,219,1.0,2.0,40,0.00,,,0.00,WeatherCatV1.15B25,2013-11-13 20:52:00,
2013-11-13 15:57:00,34.1,12.9,30.24,ENE,71,2.0,8.0,41,0.00,,,0.00,WeatherCatV1.15B25,2013-11-13 20:57:00,
2013-11-13 16:02:00,33.8,12.1,30.24,North,352,0.0,2.0,40,0.00,,,0.00,WeatherCatV1.15B25,2013-11-13 21:02:00,
2013-11-13 16:07:00,33.6,13.0,30.24,NE,53,1.0,2.0,42,0.00,,,0.00,WeatherCatV1.15B25,2013-11-13 21:07:00,
2013-11-13 16:12:00,33.4,12.3,30.24,South,190,0.0,2.0,41,0.00,,,0.00,WeatherCatV1.15B25,2013-11-13 21:12:00,
2013-11-13 16:17:00,33.2,12.1,30.24,SSE,166,0.0,0.0,41,0.00,,,0.00,WeatherCatV1.15B25,2013-11-13 21:17:00,
2013-11-13 16:22:00,33.0,13.0,30.24,South,179,0.0,0.0,43,0.00,,,0.00,WeatherCatV1.15B25,2013-11-13 21:22:00,
2013-11-13 16:27:00,32.7,12.7,30.25,NNW,348,0.0,0.0,43,0.00,,,0.00,WeatherCatV1.15B25,2013-11-13 21:27:00,
2013-11-13 16:32:00,32.3,12.9,30.25,East,89,0.0,1.0,44,0.00,,,0.00,WeatherCatV1.15B25,2013-11-13 21:32:00,
2013-11-13 16:37:00,32.1,12.2,30.25,NNW,333,0.0,3.0,43,0.00,,,0.00,WeatherCatV1.15B25,2013-11-13 21:37:00,
2013-11-13 16:42:00,31.9,12.5,30.25,SSE,157,0.0,0.0,44,0.00,,,0.00,WeatherCatV1.15B25,2013-11-13 21:42:00,
2013-11-13 16:47:00,31.9,12.5,30.25,South,183,0.0,0.0,44,0.00,,,0.00,WeatherCatV1.15B25,2013-11-13 21:47:00,
2013-11-13 16:52:00,31.6,12.7,30.25,South,172,0.0,0.0,45,0.00,,,0.00,WeatherCatV1.15B25,2013-11-13 21:52:00,
2013-11-13 16:57:00,31.3,12.5,30.25,ENE,78,1.0,1.0,45,0.00,,,0.00,WeatherCatV1.15B25,2013-11-13 21:57:00,
2013-11-13 17:02:00,31.2,12.4,30.25,ESE,121,0.0,1.0,45,0.00,,,0.00,WeatherCatV1.15B25,2013-11-13 22:02:00,
2013-11-13 17:07:00,31.0,12.7,30.25,East,90,1.0,1.0,46,0.00,,,0.00,WeatherCatV1.15B25,2013-11-13 22:07:00,
2013-11-13 17:12:00,31.1,12.3,30.25,ESE,114,0.0,1.0,45,0.00,,,0.00,WeatherCatV1.15B25,2013-11-13 22:12:00,
2013-11-13 17:17:00,31.1,12.3,30.26,East,86,0.0,1.0,45,0.00,,,0.00,WeatherCatV1.15B25,2013-11-13 22:17:00,
2013-11-13 17:22:00,31.0,12.2,30.26,East,88,0.0,1.0,45,0.00,,,0.00,WeatherCatV1.15B25,2013-11-13 22:22:00,
2013-11-13 17:27:00,30.8,13.0,30.26,East,87,0.0,0.0,47,0.00,,,0.00,WeatherCatV1.15B25,2013-11-13 22:27:00,
2013-11-13 17:32:00,30.4,13.1,30.26,SW,232,0.0,2.0,48,0.00,,,0.00,WeatherCatV1.15B25,2013-11-13 22:32:00,
2013-11-13 17:37:00,30.1,12.3,30.26,SW,232,0.0,0.0,47,0.00,,,0.00,WeatherCatV1.15B25,2013-11-13 22:37:00,
2013-11-13 17:42:00,29.9,12.6,30.27,SW,232,0.0,0.0,48,0.00,,,0.00,WeatherCatV1.15B25,2013-11-13 22:42:00,
2013-11-13 17:47:00,29.6,12.3,30.27,SW,232,0.0,0.0,48,0.00,,,0.00,WeatherCatV1.15B25,2013-11-13 22:47:00,
2013-11-13 17:52:00,29.4,12.6,30.27,SW,232,0.0,0.0,49,0.00,,,0.00,WeatherCatV1.15B25,2013-11-13 22:52:00,
2013-11-13 17:57:00,29.4,12.6,30.27,ESE,103,0.0,1.0,49,0.00,,,0.00,WeatherCatV1.15B25,2013-11-13 22:57:00,
2013-11-13 18:02:00,29.6,12.3,30.27,ESE,121,0.0,0.0,48,0.00,,,0.00,WeatherCatV1.15B25,2013-11-13 23:02:00,
2013-11-13 18:07:00,29.5,12.7,30.27,ESE,121,0.0,0.0,49,0.00,,,0.00,WeatherCatV1.15B25,2013-11-13 23:07:00,
2013-11-13 18:12:00,29.3,12.5,30.27,ESE,122,0.0,0.0,49,0.00,,,0.00,WeatherCatV1.15B25,2013-11-13 23:12:00,
2013-11-13 18:17:00,29.0,12.3,30.27,ESE,122,0.0,0.0,49,0.00,,,0.00,WeatherCatV1.15B25,2013-11-13 23:17:00,
2013-11-13 18:22:00,28.8,12.5,30.26,ESE,122,0.0,0.0,50,0.00,,,0.00,WeatherCatV1.15B25,2013-11-13 23:22:00,
2013-11-13 18:27:00,28.6,12.8,30.26,ESE,122,0.0,0.0,51,0.00,,,0.00,WeatherCatV1.15B25,2013-11-13 23:27:00,
2013-11-13 18:32:00,28.5,13.1,30.26,ESE,121,0.0,0.0,52,0.00,,,0.00,WeatherCatV1.15B25,2013-11-13 23:32:00,
2013-11-13 18:37:00,28.3,13.0,30.27,ESE,122,0.0,1.0,52,0.00,,,0.00,WeatherCatV1.15B25,2013-11-13 23:37:00,
2013-11-13 18:42:00,28.2,12.9,30.27,ESE,121,0.0,0.0,52,0.00,,,0.00,WeatherCatV1.15B25,2013-11-13 23:42:00,
2013-11-13 18:47:00,28.2,12.9,30.27,ESE,122,0.0,0.0,52,0.00,,,0.00,WeatherCatV1.15B25,2013-11-13 23:47:00,
2013-11-13 18:52:00,28.2,12.9,30.27,ESE,121,0.0,0.0,52,0.00,,,0.00,WeatherCatV1.15B25,2013-11-13 23:52:00,
2013-11-13 18:57:00,28.2,12.9,30.27,ESE,120,0.0,0.0,52,0.00,,,0.00,WeatherCatV1.15B25,2013-11-13 23:57:00,
2013-11-13 19:02:00,28.1,12.8,30.27,ESE,120,0.0,0.0,52,0.00,,,0.00,WeatherCatV1.15B25,2013-11-14 00:02:00,
2013-11-13 19:07:00,27.9,13.0,30.27,ESE,120,0.0,0.0,53,0.00,,,0.00,WeatherCatV1.15B25,2013-11-14 00:07:00,
2013-11-13 19:12:00,27.7,13.2,30.27,ESE,120,0.0,0.0,54,0.00,,,0.00,WeatherCatV1.15B25,2013-11-14 00:12:00,
2013-11-13 19:17:00,27.5,13.5,30.27,ESE,120,0.0,0.0,55,0.00,,,0.00,WeatherCatV1.15B25,2013-11-14 00:17:00,
2013-11-13 19:22:00,27.3,13.3,30.26,ESE,120,0.0,0.0,55,0.00,,,0.00,WeatherCatV1.15B25,2013-11-14 00:22:00,
2013-11-13 19:27:00,27.2,13.2,30.26,ESE,120,0.0,0.0,55,0.00,,,0.00,WeatherCatV1.15B25,2013-11-14 00:27:00,
2013-11-13 19:32:00,27.2,13.6,30.26,ESE,120,0.0,0.0,56,0.00,,,0.00,WeatherCatV1.15B25,2013-11-14 00:32:00,
2013-11-13 19:37:00,27.3,13.7,30.26,ESE,114,0.0,0.0,56,0.00,,,0.00,WeatherCatV1.15B25,2013-11-14 00:37:00,
2013-11-13 19:42:00,27.4,13.4,30.27,SE,129,0.0,0.0,55,0.00,,,0.00,WeatherCatV1.15B25,2013-11-14 00:42:00,
2013-11-13 19:47:00,27.5,13.1,30.27,ESE,109,0.0,0.0,54,0.00,,,0.00,WeatherCatV1.15B25,2013-11-14 00:47:00,
2013-11-13 19:52:00,27.6,13.6,30.27,ESE,108,0.0,0.0,55,0.00,,,0.00,WeatherCatV1.15B25,2013-11-14 00:52:00,
2013-11-13 19:57:00,27.6,13.6,30.27,ESE,109,0.0,0.0,55,0.00,,,0.00,WeatherCatV1.15B25,2013-11-14 00:57:00,
2013-11-13 20:02:00,27.5,13.9,30.27,ESE,109,0.0,0.0,56,0.00,,,0.00,WeatherCatV1.15B25,2013-11-14 01:02:00,
2013-11-13 20:07:00,27.4,13.8,30.27,NNE,27,0.0,2.0,56,0.00,,,0.00,WeatherCatV1.15B25,2013-11-14 01:07:00,
2013-11-13 20:12:00,27.5,13.5,30.27,NNE,30,0.0,1.0,55,0.00,,,0.00,WeatherCatV1.15B25,2013-11-14 01:12:00,
2013-11-13 20:17:00,27.7,13.7,30.27,SE,131,0.0,2.0,55,0.00,,,0.00,WeatherCatV1.15B25,2013-11-14 01:17:00,
2013-11-13 20:22:00,27.8,13.8,30.26,SE,131,0.0,0.0,55,0.00,,,0.00,WeatherCatV1.15B25,2013-11-14 01:22:00,
2013-11-13 20:27:00,27.7,14.1,30.26,SE,131,0.0,0.0,56,0.00,,,0.00,WeatherCatV1.15B25,2013-11-14 01:27:00,
2013-11-13 20:32:00,27.6,14.0,30.26,SE,131,0.0,0.0,56,0.00,,,0.00,WeatherCatV1.15B25,2013-11-14 01:32:00,
2013-11-13 20:37:00,27.4,13.8,30.26,SE,131,0.0,0.0,56,0.00,,,0.00,WeatherCatV1.15B25,2013-11-14 01:37:00,
2013-11-13 20:42:00,27.3,14.1,30.26,SE,131,0.0,0.0,57,0.00,,,0.00,WeatherCatV1.15B25,2013-11-14 01:42:00,
2013-11-13 20:47:00,27.3,14.5,30.26,ESE,113,0.0,0.0,58,0.00,,,0.00,WeatherCatV1.15B25,2013-11-14 01:47:00,
2013-11-13 20:52:00,27.4,14.6,30.26,ESE,113,0.0,1.0,58,0.00,,,0.00,WeatherCatV1.15B25,2013-11-14 01:52:00,
2013-11-13 20:57:00,27.4,14.6,30.26,ESE,113,0.0,1.0,58,0.00,,,0.00,WeatherCatV1.15B25,2013-11-14 01:57:00,
2013-11-13 21:02:00,27.3,14.5,30.26,ESE,113,0.0,0.0,58,0.00,,,0.00,WeatherCatV1.15B25,2013-11-14 02:02:00,
2013-11-13 21:07:00,27.3,14.5,30.26,ESE,113,0.0,0.0,58,0.00,,,0.00,WeatherCatV1.15B25,2013-11-14 02:07:00,
2013-11-13 21:12:00,27.2,14.8,30.26,ESE,113,0.0,0.0,59,0.00,,,0.00,WeatherCatV1.15B25,2013-11-14 02:12:00,
2013-11-13 21:17:00,27.1,14.7,30.26,North,354,0.0,0.0,59,0.00,,,0.00,WeatherCatV1.15B25,2013-11-14 02:17:00,
2013-11-13 21:22:00,27.2,14.4,30.26,North,354,0.0,0.0,58,0.00,,,0.00,WeatherCatV1.15B25,2013-11-14 02:22:00,
2013-11-13 21:27:00,27.2,14.4,30.25,North,354,0.0,0.0,58,0.00,,,0.00,WeatherCatV1.15B25,2013-11-14 02:27:00,
2013-11-13 21:32:00,27.2,14.4,30.25,SW,219,0.0,0.0,58,0.00,,,0.00,WeatherCatV1.15B25,2013-11-14 02:32:00,
2013-11-13 21:37:00,27.2,14.4,30.25,North,5,0.0,0.0,58,0.00,,,0.00,WeatherCatV1.15B25,2013-11-14 02:37:00,
2013-11-13 21:42:00,27.3,14.5,30.25,East,79,0.0,0.0,58,0.00,,,0.00,WeatherCatV1.15B25,2013-11-14 02:42:00,
2013-11-13 21:47:00,27.2,14.4,30.24,East,79,0.0,0.0,58,0.00,,,0.00,WeatherCatV1.15B25,2013-11-14 02:47:00,
2013-11-13 21:52:00,27.0,14.6,30.24,East,79,0.0,0.0,59,0.00,,,0.00,WeatherCatV1.15B25,2013-11-14 02:52:00,
2013-11-13 21:57:00,26.7,14.3,30.24,East,79,0.0,0.0,59,0.00,,,0.00,WeatherCatV1.15B25,2013-11-14 02:57:00,
2013-11-13 22:02:00,26.6,14.6,30.24,ENE,77,0.0,1.0,60,0.00,,,0.00,WeatherCatV1.15B25,2013-11-14 03:02:00,
2013-11-13 22:07:00,26.7,14.7,30.23,ENE,70,0.0,1.0,60,0.00,,,0.00,WeatherCatV1.15B25,2013-11-14 03:07:00,
2013-11-13 22:12:00,26.7,14.7,30.23,ENE,69,0.0,0.0,60,0.00,,,0.00,WeatherCatV1.15B25,2013-11-14 03:12:00,
2013-11-13 22:17:00,26.7,14.7,30.23,ENE,69,0.0,0.0,60,0.00,,,0.00,WeatherCatV1.15B25,2013-11-14 03:17:00,
2013-11-13 22:22:00,26.7,14.7,30.23,ENE,75,0.0,0.0,60,0.00,,,0.00,WeatherCatV1.15B25,2013-11-14 03:22:00,
2013-11-13 22:27:00,26.5,14.9,30.22,ENE,75,0.0,0.0,61,0.00,,,0.00,WeatherCatV1.15B25,2013-11-14 03:27:00,
2013-11-13 22:32:00,26.4,14.4,30.23,ENE,59,0.0,0.0,60,0.00,,,0.00,WeatherCatV1.15B25,2013-11-14 03:32:00,
2013-11-13 22:37:00,26.5,14.9,30.22,ENE,60,0.0,1.0,61,0.00,,,0.00,WeatherCatV1.15B25,2013-11-14 03:37:00,
2013-11-13 22:42:00,26.5,14.5,30.22,ENE,59,0.0,0.0,60,0.00,,,0.00,WeatherCatV1.15B25,2013-11-14 03:42:00,
2013-11-13 22:47:00,26.5,14.5,30.22,ENE,59,0.0,0.0,60,0.00,,,0.00,WeatherCatV1.15B25,2013-11-14 03:47:00,
2013-11-13 22:52:00,26.5,14.9,30.22,ENE,59,0.0,0.0,61,0.00,,,0.00,WeatherCatV1.15B25,2013-11-14 03:52:00,
2013-11-13 22:57:00,26.3,14.7,30.22,ENE,59,0.0,0.0,61,0.00,,,0.00,WeatherCatV1.15B25,2013-11-14 03:57:00,
2013-11-13 23:02:00,26.2,15.0,30.22,ENE,58,0.0,1.0,62,0.00,,,0.00,WeatherCatV1.15B25,2013-11-14 04:02:00,
2013-11-13 23:07:00,26.4,14.8,30.22,SSW,198,0.0,1.0,61,0.00,,,0.00,WeatherCatV1.15B25,2013-11-14 04:07:00,
2013-11-13 23:12:00,26.6,15.0,30.22,SSW,212,0.0,3.0,61,0.00,,,0.00,WeatherCatV1.15B25,2013-11-14 04:12:00,
2013-11-13 23:17:00,26.9,15.3,30.22,SW,235,0.0,2.0,61,0.00,,,0.00,WeatherCatV1.15B25,2013-11-14 04:17:00,
2013-11-13 23:22:00,27.0,15.4,30.21,North,11,0.0,1.0,61,0.00,,,0.00,WeatherCatV1.15B25,2013-11-14 04:22:00,
2013-11-13 23:27:00,27.2,15.6,30.21,NE,34,1.0,3.0,61,0.00,,,0.00,WeatherCatV1.15B25,2013-11-14 04:27:00,
2013-11-13 23:32:00,27.4,15.7,30.21,SE,146,0.0,2.0,61,0.00,,,0.00,WeatherCatV1.15B25,2013-11-14 04:32:00,
2013-11-13 23:37:00,27.4,15.7,30.21,ENE,71,0.0,0.0,61,0.00,,,0.00,WeatherCatV1.15B25,2013-11-14 04:37:00,
2013-11-13 23:42:00,27.5,15.8,30.20,NNW,346,0.0,4.0,61,0.00,,,0.00,WeatherCatV1.15B25,2013-11-14 04:42:00,
2013-11-13 23:47:00,27.6,16.3,30.20,East,96,0.0,1.0,62,0.00,,,0.00,WeatherCatV1.15B25,2013-11-14 04:47:00,
2013-11-13 23:52:00,27.8,16.1,30.20,ESE,106,0.0,0.0,61,0.00,,,0.00,WeatherCatV1.15B25,2013-11-14 04:52:00,
2013-11-13 23:57:00,27.8,16.5,30.19,ESE,103,0.0,0.0,62,0.00,,,0.00,WeatherCatV1.15B25,2013-11-14 04:57:00,